Torna al catalogo

FREGAT DEB

AttivoSSO
NORAD 40078·DEBRIS·🇷🇺 Russia

Lanciato Jul 8, 2014 da Baikonur Cosmodrome

Loading…

Prossimi Passaggi (prossime 24 ore)

TLE

AggiornatoSource: Space-Track

Epoca: Sep 14, 2026, 08:16 UTC

1 40078U 14037K   26257.34457051  .00000214  00000-0  53756-4 0  9992
2 40078  98.0792 232.3656 0130831 148.9241 211.9780 14.55729032646099

Traccia FREGAT DEB in tempo reale con AllMySat

Download on the App Store